Time,TemperatureF,DewpointF,PressureIn,WindDirection,WindDirectionDegrees,WindSpeedMPH,WindSpeedGustMPH,Humidity,HourlyPrecipIn,Conditions,Clouds,dailyrainin,SoftwareType,DateUTC
2013-03-24 00:02:00,38.0,23.0,29.88,NW,310,16.0,20.0,55,-99.99,,,-99.99,,2013-03-24 04:02:00,
2013-03-24 00:12:00,38.0,23.0,29.88,NW,310,16.0,20.0,55,-99.99,,,-99.99,,2013-03-24 04:12:00,
2013-03-24 00:22:00,37.0,23.0,29.88,WNW,300,16.0,20.0,54,-99.99,,,-99.99,,2013-03-24 04:22:00,
2013-03-24 00:32:00,37.0,23.0,29.88,WNW,300,16.0,20.0,54,-99.99,,,-99.99,,2013-03-24 04:32:00,
2013-03-24 00:42:00,37.0,22.0,29.88,WNW,300,16.0,22.0,54,-99.99,,,-99.99,,2013-03-24 04:42:00,
2013-03-24 00:52:00,37.0,22.0,29.88,WNW,300,18.0,22.0,54,-99.99,,,-99.99,,2013-03-24 04:52:00,
2013-03-24 01:02:00,37.0,22.0,29.88,WNW,300,18.0,22.0,54,-99.99,,,-99.99,,2013-03-24 05:02:00,
2013-03-24 01:11:00,37.0,22.0,29.88,WNW,300,18.0,22.0,54,-99.99,,,-99.99,,2013-03-24 05:11:00,
2013-03-24 01:22:00,37.0,23.0,29.88,WNW,300,18.0,25.0,55,-99.99,,,-99.99,,2013-03-24 05:22:00,
2013-03-24 01:32:00,37.0,23.0,29.88,WNW,300,18.0,25.0,55,-99.99,,,-99.99,,2013-03-24 05:32:00,
2013-03-24 01:41:00,37.0,23.0,29.88,WNW,300,18.0,25.0,56,-99.99,,,-99.99,,2013-03-24 05:41:00,
2013-03-24 01:51:00,37.0,23.0,29.88,WNW,300,18.0,25.0,56,-99.99,,,-99.99,,2013-03-24 05:51:00,
2013-03-24 02:01:00,37.0,23.0,29.88,WNW,290,18.0,22.0,56,-99.99,,,-99.99,,2013-03-24 06:01:00,
2013-03-24 02:11:00,37.0,23.0,29.88,WNW,290,18.0,22.0,56,-99.99,,,-99.99,,2013-03-24 06:11:00,
2013-03-24 02:21:00,37.0,23.0,29.88,WNW,290,16.0,22.0,57,-99.99,,,-99.99,,2013-03-24 06:21:00,
2013-03-24 02:32:00,37.0,23.0,29.88,WNW,290,16.0,22.0,57,-99.99,,,-99.99,,2013-03-24 06:32:00,
2013-03-24 02:41:00,36.0,23.0,29.88,WNW,300,18.0,25.0,58,-99.99,,,-99.99,,2013-03-24 06:41:00,
2013-03-24 02:51:00,36.0,24.0,29.88,WNW,300,18.0,25.0,59,-99.99,,,-99.99,,2013-03-24 06:51:00,
2013-03-24 03:01:00,36.0,24.0,29.88,WNW,300,18.0,22.0,60,-99.99,,,-99.99,,2013-03-24 07:01:00,
2013-03-24 03:11:00,36.0,24.0,29.88,WNW,300,18.0,22.0,60,-99.99,,,-99.99,,2013-03-24 07:11:00,
2013-03-24 03:41:00,36.0,24.0,29.86,WNW,300,18.0,22.0,62,-99.99,,,-99.99,,2013-03-24 07:41:00,
2013-03-24 03:51:00,36.0,24.0,29.85,WNW,300,18.0,25.0,62,-99.99,,,-99.99,,2013-03-24 07:51:00,
2013-03-24 04:01:00,36.0,24.0,29.84,WNW,300,18.0,22.0,63,-99.99,,,-99.99,,2013-03-24 08:01:00,
2013-03-24 04:21:00,35.0,24.0,29.84,WNW,300,18.0,22.0,63,-99.99,,,-99.99,,2013-03-24 08:21:00,
2013-03-24 04:31:00,35.0,24.0,29.84,WNW,300,18.0,22.0,63,-99.99,,,-99.99,,2013-03-24 08:31:00,
2013-03-24 04:41:00,35.0,25.0,29.84,WNW,290,18.0,25.0,64,-99.99,,,-99.99,,2013-03-24 08:41:00,
2013-03-24 04:51:00,35.0,25.0,29.84,WNW,290,18.0,22.0,64,-99.99,,,-99.99,,2013-03-24 08:51:00,
2013-03-24 05:01:00,35.0,25.0,29.84,WNW,290,18.0,22.0,64,-99.99,,,-99.99,,2013-03-24 09:01:00,
2013-03-24 05:21:00,35.0,25.0,29.84,WNW,290,18.0,22.0,64,-99.99,,,-99.99,,2013-03-24 09:21:00,
2013-03-24 05:32:00,35.0,25.0,29.85,WNW,290,16.0,20.0,65,-99.99,,,-99.99,,2013-03-24 09:32:00,
2013-03-24 05:42:00,35.0,25.0,29.86,West,280,16.0,22.0,65,-99.99,,,-99.99,,2013-03-24 09:42:00,
2013-03-24 05:52:00,35.0,24.0,29.86,West,280,18.0,22.0,64,-99.99,,,-99.99,,2013-03-24 09:52:00,
2013-03-24 06:02:00,35.0,25.0,29.86,WNW,290,18.0,22.0,65,-99.99,,,-99.99,,2013-03-24 10:02:00,
2013-03-24 06:11:00,35.0,25.0,29.86,WNW,290,18.0,22.0,65,-99.99,,,-99.99,,2013-03-24 10:11:00,
2013-03-24 06:22:00,35.0,25.0,29.86,West,280,16.0,20.0,64,-99.99,,,-99.99,,2013-03-24 10:22:00,
2013-03-24 06:32:00,35.0,25.0,29.86,West,280,16.0,20.0,64,-99.99,,,-99.99,,2013-03-24 10:32:00,
2013-03-24 06:41:00,35.0,25.0,29.87,West,270,18.0,22.0,65,-99.99,,,-99.99,,2013-03-24 10:41:00,
2013-03-24 06:52:00,35.0,25.0,29.87,West,270,18.0,22.0,65,-99.99,,,-99.99,,2013-03-24 10:52:00,
2013-03-24 07:02:00,35.0,25.0,29.88,West,280,18.0,22.0,66,-99.99,,,-99.99,,2013-03-24 11:02:00,
2013-03-24 07:11:00,35.0,25.0,29.88,West,280,18.0,22.0,66,-99.99,,,-99.99,,2013-03-24 11:11:00,
2013-03-24 07:21:00,35.0,25.0,29.89,West,280,18.0,22.0,66,-99.99,,,-99.99,,2013-03-24 11:21:00,
2013-03-24 07:32:00,35.0,25.0,29.89,West,280,16.0,20.0,64,-99.99,,,-99.99,,2013-03-24 11:32:00,
2013-03-24 07:42:00,35.0,25.0,29.89,West,280,16.0,20.0,64,-99.99,,,-99.99,,2013-03-24 11:42:00,
2013-03-24 07:51:00,36.0,24.0,29.89,West,280,16.0,20.0,62,-99.99,,,-99.99,,2013-03-24 11:51:00,
2013-03-24 08:02:00,36.0,24.0,29.88,West,280,16.0,20.0,61,-99.99,,,-99.99,,2013-03-24 12:02:00,
2013-03-24 08:11:00,36.0,24.0,29.88,West,280,16.0,20.0,61,-99.99,,,-99.99,,2013-03-24 12:11:00,
2013-03-24 08:21:00,37.0,24.0,29.88,WNW,290,16.0,20.0,58,-99.99,,,-99.99,,2013-03-24 12:21:00,
2013-03-24 08:31:00,37.0,24.0,29.88,WNW,290,16.0,20.0,58,-99.99,,,-99.99,,2013-03-24 12:31:00,
2013-03-24 08:41:00,36.0,24.0,29.89,West,280,16.0,20.0,61,-99.99,,,-99.99,,2013-03-24 12:41:00,
2013-03-24 08:51:00,36.0,24.0,29.89,West,280,16.0,20.0,61,-99.99,,,-99.99,,2013-03-24 12:51:00,
2013-03-24 09:01:00,36.0,25.0,29.90,West,270,18.0,22.0,64,-99.99,,,-99.99,,2013-03-24 13:01:00,
2013-03-24 09:11:00,36.0,25.0,29.90,West,270,18.0,22.0,64,-99.99,,,-99.99,,2013-03-24 13:11:00,
2013-03-24 09:21:00,36.0,25.0,29.90,West,270,18.0,22.0,64,-99.99,,,-99.99,,2013-03-24 13:21:00,
2013-03-24 09:31:00,36.0,25.0,29.90,West,270,18.0,22.0,64,-99.99,,,-99.99,,2013-03-24 13:31:00,
2013-03-24 09:41:00,36.0,24.0,29.90,West,280,18.0,25.0,62,-99.99,,,-99.99,,2013-03-24 13:41:00,
2013-03-24 09:51:00,36.0,24.0,29.91,West,280,18.0,22.0,61,-99.99,,,-99.99,,2013-03-24 13:51:00,
2013-03-24 10:01:00,36.0,24.0,29.90,West,280,18.0,22.0,59,-99.99,,,-99.99,,2013-03-24 14:01:00,
2013-03-24 10:21:00,37.0,24.0,29.90,WNW,290,16.0,20.0,59,-99.99,,,-99.99,,2013-03-24 14:21:00,
2013-03-24 10:31:00,37.0,24.0,29.90,WNW,290,16.0,20.0,59,-99.99,,,-99.99,,2013-03-24 14:31:00,
2013-03-24 10:41:00,37.0,24.0,29.90,West,280,16.0,18.0,58,-99.99,,,-99.99,,2013-03-24 14:41:00,
2013-03-24 10:51:00,37.0,24.0,29.90,West,280,13.0,20.0,58,-99.99,,,-99.99,,2013-03-24 14:51:00,
2013-03-24 11:01:00,37.0,24.0,29.90,WNW,290,13.0,18.0,58,-99.99,,,-99.99,,2013-03-24 15:01:00,
2013-03-24 11:11:00,37.0,24.0,29.90,WNW,290,13.0,18.0,58,-99.99,,,-99.99,,2013-03-24 15:11:00,
2013-03-24 11:21:00,38.0,23.0,29.88,WNW,300,13.0,18.0,54,-99.99,,,-99.99,,2013-03-24 15:21:00,
2013-03-24 11:32:00,38.0,23.0,29.88,WNW,300,13.0,18.0,54,-99.99,,,-99.99,,2013-03-24 15:32:00,
2013-03-24 11:42:00,39.0,24.0,29.87,WNW,300,11.0,16.0,54,-99.99,,,-99.99,,2013-03-24 15:42:00,
2013-03-24 11:52:00,39.0,24.0,29.87,WNW,300,13.0,16.0,54,-99.99,,,-99.99,,2013-03-24 15:52:00,
2013-03-24 12:02:00,39.0,24.0,29.87,WNW,300,13.0,16.0,54,-99.99,,,-99.99,,2013-03-24 16:02:00,
2013-03-24 12:12:00,40.0,24.0,29.86,NW,320,11.0,16.0,52,-99.99,,,-99.99,,2013-03-24 16:12:00,
2013-03-24 12:22:00,40.0,24.0,29.86,NW,310,9.0,13.0,52,-99.99,,,-99.99,,2013-03-24 16:22:00,
2013-03-24 12:32:00,40.0,24.0,29.86,NW,310,9.0,13.0,52,-99.99,,,-99.99,,2013-03-24 16:32:00,
2013-03-24 12:42:00,40.0,24.0,29.85,NW,310,9.0,13.0,52,-99.99,,,-99.99,,2013-03-24 16:42:00,
2013-03-24 12:52:00,41.0,25.0,29.85,NW,310,11.0,20.0,52,-99.99,,,-99.99,,2013-03-24 16:52:00,
2013-03-24 13:02:00,41.0,25.0,29.84,NW,310,9.0,13.0,52,-99.99,,,-99.99,,2013-03-24 17:02:00,
2013-03-24 13:11:00,41.0,25.0,29.84,NW,310,9.0,13.0,52,-99.99,,,-99.99,,2013-03-24 17:11:00,
2013-03-24 13:22:00,41.0,25.0,29.83,NW,320,9.0,13.0,51,-99.99,,,-99.99,,2013-03-24 17:22:00,
2013-03-24 13:41:00,42.0,24.0,29.83,NW,320,11.0,16.0,49,-99.99,,,-99.99,,2013-03-24 17:41:00,
2013-03-24 13:52:00,42.0,25.0,29.82,NNW,340,11.0,16.0,50,-99.99,,,-99.99,,2013-03-24 17:52:00,
2013-03-24 14:01:00,42.0,24.0,29.80,NNW,340,11.0,18.0,48,-99.99,,,-99.99,,2013-03-24 18:01:00,
2013-03-24 14:11:00,42.0,24.0,29.80,NNW,340,11.0,18.0,48,-99.99,,,-99.99,,2013-03-24 18:11:00,
2013-03-24 14:21:00,42.0,24.0,29.80,NNW,340,11.0,18.0,48,-99.99,,,-99.99,,2013-03-24 18:21:00,
2013-03-24 14:31:00,42.0,25.0,29.80,North,360,9.0,13.0,51,-99.99,,,-99.99,,2013-03-24 18:31:00,
2013-03-24 14:42:00,42.0,26.0,29.81,North,350,7.0,11.0,53,-99.99,,,-99.99,,2013-03-24 18:42:00,
2013-03-24 14:51:00,42.0,26.0,29.81,North,360,4.0,9.0,51,-99.99,,,-99.99,,2013-03-24 18:51:00,
2013-03-24 15:02:00,42.0,26.0,29.81,North,360,4.0,9.0,51,-99.99,,,-99.99,,2013-03-24 19:02:00,
2013-03-24 15:31:00,43.0,26.0,29.79,NNW,340,2.0,7.0,50,-99.99,,,-99.99,,2013-03-24 19:31:00,
2013-03-24 15:42:00,43.0,28.0,29.78,NNW,330,2.0,4.0,54,-99.99,,,-99.99,,2013-03-24 19:42:00,
2013-03-24 15:52:00,44.0,27.0,29.76,West,260,2.0,4.0,50,-99.99,,,-99.99,,2013-03-24 19:52:00,
2013-03-24 16:01:00,44.0,27.0,29.76,SW,230,4.0,9.0,49,-99.99,,,-99.99,,2013-03-24 20:01:00,
2013-03-24 16:11:00,44.0,27.0,29.76,SW,230,4.0,9.0,49,-99.99,,,-99.99,,2013-03-24 20:11:00,
2013-03-24 16:21:00,43.0,28.0,29.75,SW,230,4.0,9.0,54,-99.99,,,-99.99,,2013-03-24 20:21:00,
2013-03-24 16:31:00,43.0,28.0,29.75,SW,230,4.0,9.0,54,-99.99,,,-99.99,,2013-03-24 20:31:00,
2013-03-24 16:41:00,43.0,27.0,29.75,WSW,240,4.0,9.0,52,-99.99,,,-99.99,,2013-03-24 20:41:00,
2013-03-24 16:52:00,42.0,30.0,29.74,WSW,250,9.0,13.0,61,-99.99,,,-99.99,,2013-03-24 20:52:00,
2013-03-24 17:02:00,41.0,31.0,29.74,WSW,240,9.0,13.0,65,-99.99,,,-99.99,,2013-03-24 21:02:00,
2013-03-24 17:11:00,41.0,31.0,29.74,WSW,240,9.0,13.0,65,-99.99,,,-99.99,,2013-03-24 21:11:00,
2013-03-24 17:21:00,42.0,31.0,29.73,WSW,250,7.0,11.0,65,-99.99,,,-99.99,,2013-03-24 21:21:00,
2013-03-24 17:32:00,42.0,31.0,29.73,WSW,250,7.0,11.0,65,-99.99,,,-99.99,,2013-03-24 21:32:00,
2013-03-24 17:42:00,41.0,32.0,29.73,West,260,7.0,11.0,69,-99.99,,,-99.99,,2013-03-24 21:42:00,
2013-03-24 17:52:00,41.0,32.0,29.73,West,260,7.0,11.0,70,-99.99,,,-99.99,,2013-03-24 21:52:00,
2013-03-24 18:02:00,41.0,33.0,29.73,WSW,240,7.0,9.0,72,-99.99,,,-99.99,,2013-03-24 22:02:00,
2013-03-24 18:12:00,41.0,33.0,29.73,WSW,240,7.0,9.0,72,-99.99,,,-99.99,,2013-03-24 22:12:00,
2013-03-24 18:22:00,41.0,33.0,29.73,SW,230,4.0,7.0,72,-99.99,,,-99.99,,2013-03-24 22:22:00,
2013-03-24 18:32:00,41.0,33.0,29.73,SW,230,4.0,7.0,72,-99.99,,,-99.99,,2013-03-24 22:32:00,
2013-03-24 18:42:00,41.0,33.0,29.73,SW,230,7.0,9.0,72,-99.99,,,-99.99,,2013-03-24 22:42:00,
2013-03-24 18:52:00,40.0,33.0,29.73,SW,230,7.0,9.0,74,-99.99,,,-99.99,,2013-03-24 22:52:00,
2013-03-24 19:02:00,40.0,33.0,29.73,SW,220,7.0,9.0,74,-99.99,,,-99.99,,2013-03-24 23:02:00,
2013-03-24 19:11:00,40.0,33.0,29.73,SW,220,7.0,9.0,74,-99.99,,,-99.99,,2013-03-24 23:11:00,
2013-03-24 19:21:00,40.0,33.0,29.74,SSE,160,7.0,11.0,77,-99.99,,,-99.99,,2013-03-24 23:21:00,
2013-03-24 19:41:00,40.0,33.0,29.74,SSE,160,9.0,11.0,76,-99.99,,,-99.99,,2013-03-24 23:41:00,
2013-03-24 19:52:00,40.0,33.0,29.74,SSE,160,9.0,11.0,76,-99.99,,,-99.99,,2013-03-24 23:52:00,
2013-03-24 20:01:00,39.0,33.0,29.74,South,170,11.0,13.0,76,-99.99,,,-99.99,,2013-03-25 00:01:00,
2013-03-24 20:11:00,39.0,33.0,29.74,South,180,11.0,16.0,76,-99.99,,,-99.99,,2013-03-25 00:11:00,
2013-03-24 20:22:00,39.0,32.0,29.74,South,190,9.0,11.0,75,-99.99,,,-99.99,,2013-03-25 00:22:00,
2013-03-24 20:31:00,39.0,32.0,29.74,South,190,9.0,11.0,75,-99.99,,,-99.99,,2013-03-25 00:31:00,
2013-03-24 20:42:00,39.0,32.0,29.75,South,180,9.0,11.0,75,-99.99,,,-99.99,,2013-03-25 00:42:00,
2013-03-24 20:52:00,39.0,32.0,29.75,South,180,9.0,11.0,75,-99.99,,,-99.99,,2013-03-25 00:52:00,
2013-03-24 21:01:00,39.0,33.0,29.79,South,180,9.0,11.0,76,-99.99,,,-99.99,,2013-03-25 01:01:00,
2013-03-24 21:21:00,39.0,33.0,29.80,SSE,160,9.0,11.0,77,-99.99,,,-99.99,,2013-03-25 01:21:00,
2013-03-24 21:41:00,39.0,33.0,29.80,SSE,150,9.0,11.0,79,-99.99,,,-99.99,,2013-03-25 01:41:00,
2013-03-24 21:52:00,39.0,33.0,29.80,SE,140,9.0,13.0,77,-99.99,,,-99.99,,2013-03-25 01:52:00,
2013-03-24 22:01:00,39.0,32.0,29.81,SE,140,9.0,13.0,75,-99.99,,,-99.99,,2013-03-25 02:01:00,
2013-03-24 22:31:00,39.0,31.0,29.81,SE,140,9.0,11.0,73,-99.99,,,-99.99,,2013-03-25 02:31:00,
2013-03-24 22:42:00,39.0,31.0,29.80,SSE,150,9.0,11.0,71,-99.99,,,-99.99,,2013-03-25 02:42:00,
2013-03-24 22:51:00,39.0,30.0,29.80,SSE,150,9.0,11.0,68,-99.99,,,-99.99,,2013-03-25 02:51:00,
2013-03-24 23:01:00,39.0,30.0,29.80,SSE,160,7.0,9.0,68,-99.99,,,-99.99,,2013-03-25 03:01:00,
2013-03-24 23:21:00,39.0,30.0,29.79,South,170,7.0,9.0,68,-99.99,,,-99.99,,2013-03-25 03:21:00,
2013-03-24 23:32:00,39.0,30.0,29.79,South,170,7.0,9.0,68,-99.99,,,-99.99,,2013-03-25 03:32:00,
2013-03-24 23:42:00,39.0,30.0,29.79,SSE,160,4.0,7.0,69,-99.99,,,-99.99,,2013-03-25 03:42:00,
2013-03-24 23:52:00,39.0,31.0,29.79,South,170,4.0,7.0,72,-99.99,,,-99.99,,2013-03-25 03:52:00,